Location: Grantham
(50.0698°N, 112.0083°W)
Time: 10:30:02
(UTC+00:00)

X-37B - Visible Passes

Search period start: 05 December 2021 00:00
Search period end: 15 December 2021 00:00
Orbit: 330 x 341 km, 45.0° (Epoch: 20 November)

Date Brightness Start Highest point End Pass type
(mag) Time Alt. Az. Time Alt. Az. Time Alt. Az.
09 Dec 2.6 01:11:53 10° SSW 01:13:35 15° SSE 01:13:51 14° SSE visible
10 Dec 2.3 01:31:25 10° SW 01:33:25 22° S 01:33:25 22° S visible
11 Dec 2.8 00:17:19 10° SSW 00:19:01 15° SSE 00:20:43 10° ESE visible
11 Dec 2.6 01:51:26 10° WSW 01:52:57 22° SSW 01:52:57 22° SSW visible
12 Dec 2.3 00:36:51 10° SW 00:39:10 22° SSE 00:41:16 11° ESE visible
12 Dec 3.4 02:11:41 10° WSW 02:12:29 16° WSW 02:12:29 16° WSW visible
13 Dec 1.9 00:56:52 10° WSW 00:59:24 28° S 01:00:49 18° SE visible
14 Dec 1.8 01:17:06 10° WSW 01:19:39 29° S 01:20:24 25° SSE visible
